This demonstration page uses our WeatherBlox Daily Observations layout. Learn more.

Left ArrowRight Arrow

44.8408, -93.29828

Hourly Observations for August 30, 2021

Temp ( °F °C ) Dew Point ( °F °C ) Humidity (%) Winds ( mph kmh ) Pressure ( in mb ) Visibility ( mi km ) Precip ( " mm )
12:53 am 00:53 Clear 66 18.9 59 15 78 78 SSW 5 7 30.01 1016 10 16 0.00 0.00
1:53 am 01:53 Clear 66 18.9 58 14.4 75 75 SW 5 7 30.01 1016 10 16 0.00 0.00
2:53 am 02:53 Clear 65 18.3 58 14.4 78 78 SW 6 9 30.00 1016 10 16 0.00 0.00
3:53 am 03:53 Clear 64 17.8 57 13.9 78 78 SW 6 9 30.00 1016 10 16 0.00 0.00
4:53 am 04:53 Clear 64 17.8 56 13.3 75 75 Calm 30.00 1016 10 16 0.00 0.00
5:53 am 05:53 Clear 62 16.7 56 13.3 80 80 Calm 30.00 1016 10 16 0.00 0.00
6:53 am 06:53 Sunny 62 16.7 56 13.3 80 80 WSW 5 7 30.00 1016 10 16 0.00 0.00
7:53 am 07:53 Sunny 65 18.3 56 13.3 73 73 W 3 6 30.01 1016 10 16 0.00 0.00
8:53 am 08:53 Sunny 69 20.6 58 14.4 68 68 NNW 3 6 30.01 1016 10 16 0.00 0.00
9:53 am 09:53 Sunny 73 22.8 58 14.4 59 59 Calm 30.01 1016 10 16 0.00 0.00
10:53 am 10:53 Sunny 77 25 59 15 54 54 W 5 7 29.99 1016 10 16 0.00 0.00
11:53 am 11:53 Sunny 79 26.1 54 12.2 42 42 W 10 17 29.98 1015 10 16 0.00 0.00
12:53 pm 12:53 Sunny 81 27.2 56 13.3 42 42 NW 12 19 29.96 1015 10 16 0.00 0.00
1:53 pm 13:53 Partly Cloudy 82 27.8 56 13.3 41 41 WNW 12 19 29.94 1014 10 16 0.00 0.00
2:53 pm 14:53 Partly Cloudy 82 27.8 54 12.2 38 38 WNW 7 11 29.92 1013 10 16 0.00 0.00
3:53 pm 15:53 Partly Cloudy 82 27.8 53 11.7 37 37 NNW 12 19 29.91 1013 10 16 0.00 0.00
4:53 pm 16:53 Partly Cloudy 82 27.8 53 11.7 37 37 NNW 6 9 29.90 1013 10 16 0.00 0.00
5:53 pm 17:53 Partly Cloudy 82 27.8 54 12.2 38 38 NNW 6 9 29.89 1012 10 16 0.00 0.00
6:53 pm 18:53 Partly Cloudy 80 26.7 54 12.2 41 41 NW 6 9 29.88 1012 10 16 0.00 0.00
7:53 pm 19:53 Partly Cloudy 77 25 55 12.8 47 47 NNE 5 7 29.89 1012 10 16 0.00 0.00
8:53 pm 20:53 Partly Cloudy 76 24.4 56 13.3 50 50 E 6 9 29.91 1013 10 16 0.00 0.00
9:53 pm 21:53 Mostly Clear 74 23.3 57 13.9 56 56 E 5 7 29.91 1013 10 16 0.00 0.00
10:53 pm 22:53 Mostly Clear 72 22.2 58 14.4 61 61 Calm 29.92 1013 10 16 0.00 0.00
11:53 pm 23:53 Mostly Clear 70 21.1 59 15 68 68 E 5 7 29.91 1013 10 16 0.00 0.00

Powered by AerisWeather